User: anonymous   Login
Location: Colorado Springs
(38.8340°N, 104.8210°W)
Time: 00:09:42
(UTC-07:00)
Language:

BEESAT 3 - Orbit

View from above orbital plane
View from above orbital plane
View from above satellite
View from above satellite

Ground track
Ground track

The orbit data is extracted from the following two-line orbital elements,

1 39134U 13015E   18352.88910556  .00000962  00000-0  54248-4 0  9995
2 39134  64.8635 249.2119 0012027 322.8957  37.1338 15.19671676312965
Epoch (UTC): 18 December 2018 21:20:18
Eccentricity: 0.0012027
inclination: 64.8635°
perigee height: 498 km
apogee height: 515 km
right ascension of ascending node: 249.2119°
argument of perigee: 322.8957°
revolutions per day: 15.19671676
mean anomaly at epoch: 37.1338°
orbit number at epoch: 31296

The dashed part of the orbit path shows where the satellite is in the earth's shadow,  

DLR